QPF
0.00 0.00 0.00 0.00 0.00 0.00 0.00 0.00 0.00 0.00 0.00 0.00 0.00 0.00 0.00 0.00 0.00 0.00 0.00 0.00 0.00 0.00 0.00 0.00 0.00 0.00 0.00 0.00 0.00 0.00 0.00 0.03
0.00 0.00 0.00 0.00 0.00 0.00 0.00 0.00 0.00 0.00 0.00 0.00 0.00 0.00 0.00 0.00 0.00 0.00 0.00 0.00 0.00 0.00 0.00 0.00 0.00 0.00 0.00 0.00 0.00 0.00 0.00 0.02
0.00 0.00 0.00 0.00 0.00 0.00 0.00 0.00 0.00 0.00 0.00 0.00 0.00 0.00 0.00 0.00 0.00 0.00 0.00 0.00 0.00 0.01 0.02 0.01 0.00 0.00 0.00 0.00 0.00 0.00 0.00 0.06
0.00 0.00 0.00 0.00 0.00 0.00 0.00 0.00 0.00 0.00 0.00 0.00 0.00 0.00 0.00 0.00 0.00 0.00 0.06 0.09 0.06 0.10 0.15 0.14 0.09 0.02 0.00 0.00 0.00 0.00 0.03 0.07
0.00 0.00 0.00 0.00 0.00 0.00 0.00 0.00 0.00 0.00 0.00 0.00 0.00 0.00 0.00 0.00 0.00 0.07 0.17 0.17 0.16 0.17 0.22 0.22 0.16 0.06 0.00 0.00 0.00 0.01 0.04 0.07
0.00 0.00 0.00 0.00 0.00 0.00 0.00 0.00 0.00 0.00 0.00 0.00 0.00 0.00 0.01 0.03 0.02 0.05 0.04 0.08 0.11 0.16 0.21 0.23 0.23 0.14 0.03 0.01 0.00 0.00 0.00 0.02
0.00 0.00 0.00 0.00 0.00 0.00 0.00 0.00 0.00 0.00 0.00 0.00 0.00 0.00 0.01 0.00 0.01 0.06 0.03 0.05 0.01 0.04 0.11 0.16 0.21 0.15 0.03 0.00 0.00 0.00 0.00 0.00
0.00 0.00 0.00 0.00 0.00 0.00 0.01 0.00 0.00 0.00 0.00 0.00 0.00 0.03 0.07 0.02 0.00 0.01 0.00 0.00 0.00 0.00 0.04 0.13 0.13 0.04 0.01 0.00 0.00 0.00 0.00 0.00
0.00 0.00 0.00 0.00 0.00 0.00 0.00 0.00 0.00 0.00 0.00 0.00 0.00 0.01 0.01 0.00 0.00 0.00 0.00 0.00 0.00 0.00 0.00 0.06 0.10 0.02 0.00 0.00 0.00 0.00 0.00 0.00
0.00 0.00 0.00 0.00 0.00 0.00 0.00 0.00 0.00 0.00 0.00 0.00 0.00 0.00 0.00 0.00 0.00 0.00 0.00 0.00 0.00 0.00 0.00 0.02 0.04 0.03 0.01 0.00 0.00 0.00 0.00 0.00
0.00 0.00 0.00 0.00 0.00 0.00 0.00 0.00 0.00 0.00 0.00 0.00 0.00 0.00 0.00 0.00 0.00 0.00 0.00 0.00 0.00 0.00 0.00 0.00 0.01 0.02 0.00 0.00 0.00 0.00 0.00 0.00
0.00 0.01 0.01 0.00 0.00 0.00 0.00 0.00 0.00 0.00 0.00 0.00 0.00 0.00 0.00 0.00 0.00 0.00 0.00 0.00 0.00 0.00 0.00 0.00 0.00 0.00 0.00 0.00 0.00 0.00 0.00 0.00
0.00 0.01 0.00 0.00 0.00 0.00 0.00 0.00 0.00 0.00 0.00 0.00 0.00 0.00 0.00 0.00 0.00 0.00 0.00 0.00 0.00 0.00 0.00 0.00 0.00 0.00 0.00 0.00 0.00 0.00 0.00 0.00
0.00 0.00 0.00 0.00 0.00 0.00 0.00 0.00 0.00 0.00 0.00 0.00 0.00 0.00 0.00 0.00 0.00 0.00 0.00 0.00 0.00 0.00 0.00 0.00 0.00 0.00 0.00 0.00 0.00 0.00 0.00 0.00
0.00 0.00 0.00 0.00 0.00 0.00 0.00 0.00 0.00 0.00 0.00 0.00 0.00 0.00 0.00 0.00 0.00 0.00 0.00 0.00 0.00 0.00 0.00 0.00 0.00 0.00 0.00 0.00 0.00 0.00 0.00 0.00
0.00 0.00 0.00 0.00 0.00 0.00 0.00 0.00 0.00 0.00 0.00 0.00 0.00 0.00 0.00 0.00 0.00 0.00 0.00 0.00 0.00 0.00 0.00 0.00 0.00 0.00 0.00 0.00 0.00 0.00 0.00 0.00
0.00 0.00 0.00 0.00 0.00 0.00 0.00 0.00 0.00 0.00 0.00 0.00 0.00 0.00 0.00 0.00 0.00 0.00 0.00 0.00 0.00 0.00 0.00 0.00 0.00 0.00 0.00 0.00 0.00 0.00 0.00 0.00
0.00 0.00 0.00 0.00 0.00 0.00 0.00 0.00 0.00 0.00 0.00 0.00 0.00 0.00 0.00 0.00 0.00 0.00 0.00 0.00 0.00 0.00 0.00 0.00 0.00 0.00 0.00 0.00 0.00 0.00 0.00 0.00
0.00 0.00 0.00 0.00 0.00 0.00 0.00 0.00 0.00 0.00 0.00 0.00 0.00 0.00 0.00 0.00 0.00 0.00 0.00 0.00 0.00 0.00 0.00 0.00 0.00 0.00 0.00 0.00 0.00 0.00 0.00 0.00
0.00 0.00 0.00 0.00 0.00 0.00 0.00 0.00 0.00 0.00 0.00 0.00 0.00 0.00 0.00 0.00 0.00 0.00 0.00 0.00 0.00 0.00 0.00 0.00 0.00 0.00 0.00 0.00 0.00 0.00 0.00 0.00
MSLP
1013.94 1014.40 1014.75 1015.11 1015.43 1015.78 1016.02 1016.32 1016.77 1017.22 1017.61 1017.83 1018.18 1018.44 1018.62 1018.71 1018.92 1019.00 1019.18 1019.40 1019.57 1019.63 1019.59 1019.41 1019.10 1019.06 1019.12 1019.39 1019.46 1019.26 1019.91 1019.49
1014.19 1014.65 1015.01 1015.30 1015.57 1015.77 1016.19 1016.53 1016.87 1017.23 1017.52 1017.73 1018.15 1018.36 1018.48 1018.70 1018.85 1018.98 1019.24 1019.52 1019.61 1019.82 1019.82 1019.61 1019.19 1018.90 1019.04 1019.20 1019.32 1019.22 1019.47 1019.26
1013.97 1014.57 1015.11 1015.40 1015.71 1016.03 1016.23 1016.56 1016.94 1017.19 1017.40 1017.75 1018.03 1018.09 1018.20 1018.48 1018.60 1018.82 1019.04 1019.32 1019.56 1019.92 1020.19 1019.98 1019.76 1019.12 1018.92 1018.95 1018.94 1019.21 1019.30 1019.47
1013.41 1014.01 1014.80 1015.29 1015.42 1015.94 1016.33 1016.64 1016.94 1017.14 1017.40 1017.68 1017.79 1017.90 1018.25 1018.39 1018.52 1018.76 1019.00 1019.26 1019.64 1020.26 1021.00 1020.72 1019.98 1019.52 1019.01 1018.81 1018.98 1019.11 1019.11 1019.30
1013.20 1013.65 1014.17 1014.89 1015.22 1015.84 1016.16 1016.45 1016.89 1017.12 1017.21 1017.43 1017.68 1018.01 1018.27 1018.47 1018.78 1019.28 1019.57 1019.42 1020.19 1019.86 1021.41 1021.02 1020.42 1019.45 1018.96 1018.87 1019.24 1019.22 1019.33 1019.15
1012.70 1013.20 1013.61 1014.14 1014.92 1015.49 1015.66 1016.09 1016.41 1016.73 1016.96 1017.39 1017.84 1018.05 1018.20 1018.81 1019.12 1019.09 1019.25 1019.91 1020.14 1020.91 1020.70 1020.80 1018.95 1019.34 1018.93 1019.33 1019.80 1019.95 1019.89 1019.77
1012.29 1012.75 1013.30 1013.85 1014.68 1015.13 1015.35 1015.64 1016.13 1016.63 1017.05 1017.33 1017.62 1018.13 1018.68 1018.96 1019.30 1019.65 1019.91 1019.96 1018.93 1019.41 1019.33 1019.17 1019.44 1019.90 1019.71 1019.75 1020.20 1020.58 1020.09 1020.32
1011.99 1012.52 1012.99 1013.51 1014.50 1014.79 1015.39 1015.79 1016.39 1016.72 1017.15 1017.44 1017.91 1018.41 1018.91 1019.26 1019.38 1019.63 1019.55 1019.67 1019.36 1018.97 1019.40 1019.61 1019.95 1019.85 1020.05 1020.00 1020.85 1021.06 1020.74 1020.85
1011.89 1012.54 1013.06 1013.76 1014.57 1015.27 1015.58 1016.20 1016.57 1017.12 1017.51 1017.75 1017.81 1018.24 1018.90 1019.56 1019.75 1019.64 1019.27 1019.30 1019.43 1019.41 1019.65 1019.76 1020.34 1020.30 1020.85 1020.98 1021.26 1021.35 1021.41 1021.38
1011.97 1012.74 1013.25 1013.95 1014.66 1015.29 1015.89 1016.48 1016.89 1017.44 1017.77 1017.96 1018.19 1018.67 1019.16 1019.33 1019.73 1019.82 1019.65 1019.60 1019.65 1019.56 1019.89 1020.17 1020.38 1021.39 1021.59 1021.90 1022.16 1022.27 1021.99 1021.84
1012.36 1012.88 1013.70 1014.35 1014.86 1015.40 1016.13 1016.71 1017.16 1017.50 1017.93 1018.33 1018.78 1019.05 1019.20 1019.39 1019.41 1019.48 1019.60 1019.46 1019.50 1019.35 1019.90 1020.01 1021.06 1021.77 1022.13 1022.43 1022.78 1022.76 1022.90 1022.88
1012.97 1013.57 1014.25 1014.88 1015.42 1015.82 1016.48 1017.21 1017.62 1017.87 1018.35 1018.70 1018.89 1018.93 1019.02 1019.43 1019.85 1019.81 1019.70 1019.60 1019.68 1019.80 1020.24 1020.56 1021.29 1021.84 1022.63 1023.16 1023.47 1023.63 1023.64 1023.70
1013.72 1014.22 1014.91 1015.16 1015.72 1016.37 1017.02 1017.64 1017.99 1018.25 1018.45 1018.68 1018.91 1019.11 1019.22 1019.31 1019.56 1019.69 1019.84 1019.90 1019.98 1020.19 1020.72 1021.26 1022.32 1022.36 1022.65 1023.64 1024.10 1024.01 1024.07 1024.18
1014.37 1014.73 1015.16 1015.55 1015.80 1016.26 1016.67 1017.44 1017.94 1018.15 1018.71 1019.04 1019.03 1019.11 1019.22 1019.37 1019.70 1020.11 1020.10 1020.13 1020.23 1020.42 1020.74 1021.09 1021.47 1021.78 1022.04 1022.83 1023.41 1024.03 1024.10 1024.30
1014.69 1015.00 1015.28 1015.61 1015.88 1016.20 1016.90 1017.38 1017.86 1018.62 1019.08 1019.32 1019.21 1019.28 1019.62 1019.85 1020.03 1020.19 1020.30 1020.21 1020.57 1020.72 1020.97 1021.32 1021.62 1021.67 1021.62 1021.80 1022.53 1023.13 1023.97 1024.37
1014.87 1015.08 1015.32 1015.58 1015.72 1016.09 1016.52 1017.00 1017.95 1018.52 1018.94 1019.17 1019.31 1019.43 1019.61 1019.88 1019.98 1020.21 1020.26 1020.45 1020.67 1020.78 1020.76 1021.15 1021.47 1021.82 1021.71 1021.42 1021.53 1022.09 1023.03 1024.16
1014.97 1015.10 1015.26 1015.46 1015.72 1016.04 1016.44 1017.14 1017.66 1018.09 1018.61 1019.00 1019.40 1019.60 1019.76 1019.95 1020.12 1020.26 1020.42 1020.43 1020.52 1020.73 1020.72 1020.86 1021.15 1021.43 1021.60 1021.53 1021.57 1021.91 1022.17 1022.70
1014.89 1015.00 1015.13 1015.44 1015.69 1015.94 1016.31 1016.77 1017.43 1018.09 1018.64 1019.16 1019.35 1019.60 1019.77 1019.72 1019.79 1020.07 1020.21 1020.45 1020.73 1020.76 1020.91 1021.14 1021.26 1021.37 1021.52 1021.75 1021.79 1021.84 1022.14 1022.46
1014.66 1014.88 1015.06 1015.25 1015.43 1015.57 1015.82 1016.17 1016.72 1017.41 1018.04 1018.56 1019.08 1019.45 1019.51 1019.49 1019.41 1019.79 1020.03 1020.09 1020.33 1020.63 1020.93 1021.00 1021.14 1021.28 1021.37 1021.44 1021.43 1021.59 1021.50 1021.70
1014.26 1014.57 1014.75 1014.97 1015.07 1015.15 1015.42 1015.82 1016.38 1016.91 1017.27 1017.76 1018.10 1018.43 1018.50 1018.58 1018.91 1019.20 1019.46 1019.70 1020.07 1020.36 1020.76 1020.89 1020.79 1021.07 1021.17 1021.32 1021.36 1021.51 1021.65 1021.85
Thickness
5789 5782 5776 5771 5764 5759 5754 5748 5741 5734 5728 5723 5716 5712 5706 5702 5698 5695 5692 5687 5684 5684 5684 5684 5688 5687 5685 5682 5679 5679 5666 5672
5783 5776 5770 5766 5760 5756 5748 5742 5737 5731 5725 5720 5714 5709 5704 5699 5695 5692 5686 5680 5677 5674 5673 5676 5681 5684 5682 5680 5677 5677 5667 5666
5781 5773 5766 5761 5755 5749 5744 5738 5732 5728 5722 5715 5711 5707 5703 5697 5694 5689 5683 5677 5670 5662 5658 5662 5665 5675 5678 5677 5677 5674 5669 5663
5783 5774 5765 5757 5753 5747 5739 5734 5729 5724 5718 5713 5709 5705 5699 5695 5690 5684 5677 5672 5664 5655 5644 5644 5650 5661 5669 5674 5671 5670 5669 5665
5781 5773 5764 5754 5750 5743 5736 5732 5725 5719 5715 5710 5706 5700 5696 5691 5685 5674 5668 5666 5653 5653 5640 5641 5640 5651 5661 5667 5664 5664 5662 5664
5784 5772 5763 5756 5749 5740 5735 5730 5724 5717 5712 5706 5700 5696 5694 5687 5681 5676 5668 5662 5653 5642 5640 5631 5641 5645 5652 5654 5652 5652 5650 5651
5777 5771 5760 5753 5746 5738 5734 5729 5720 5712 5707 5702 5699 5694 5688 5683 5675 5668 5662 5656 5664 5657 5651 5646 5643 5638 5643 5646 5643 5639 5643 5641
5770 5762 5756 5749 5742 5735 5729 5724 5716 5712 5705 5699 5693 5688 5682 5676 5672 5667 5663 5659 5655 5658 5650 5646 5641 5641 5637 5641 5633 5631 5632 5631
5764 5755 5750 5743 5735 5726 5722 5715 5710 5704 5698 5694 5691 5687 5679 5669 5665 5663 5663 5659 5653 5649 5647 5646 5636 5632 5630 5627 5623 5621 5620 5621
5759 5750 5744 5737 5728 5721 5714 5707 5702 5696 5692 5689 5685 5679 5672 5669 5661 5657 5655 5652 5648 5644 5642 5640 5635 5621 5616 5612 5608 5607 5607 5610
5749 5743 5734 5728 5721 5715 5707 5700 5696 5692 5687 5683 5676 5671 5666 5661 5659 5655 5650 5647 5641 5642 5638 5632 5621 5614 5608 5603 5598 5596 5596 5595
5738 5730 5724 5718 5712 5707 5700 5693 5688 5684 5679 5675 5671 5668 5663 5656 5649 5647 5645 5642 5637 5629 5624 5621 5612 5606 5599 5592 5586 5584 5584 5582
5724 5719 5712 5710 5705 5698 5691 5685 5681 5677 5673 5668 5665 5660 5655 5652 5647 5642 5638 5635 5630 5623 5613 5603 5594 5593 5590 5580 5575 5573 5571 5569
5713 5710 5706 5702 5699 5694 5690 5682 5676 5672 5666 5662 5659 5656 5651 5646 5640 5632 5629 5626 5620 5614 5607 5601 5593 5588 5588 5579 5576 5569 5565 5561
5705 5703 5700 5696 5693 5690 5683 5677 5671 5663 5658 5654 5652 5648 5643 5637 5629 5624 5618 5614 5607 5602 5596 5591 5587 5583 5581 5577 5570 5572 5559 5551
5697 5696 5693 5691 5689 5684 5680 5674 5664 5659 5652 5648 5644 5640 5636 5630 5625 5616 5611 5604 5599 5594 5591 5584 5579 5573 5572 5573 5571 5562 5556 5548
5689 5688 5687 5684 5681 5678 5673 5666 5660 5654 5647 5642 5636 5630 5625 5620 5614 5608 5603 5598 5592 5585 5580 5576 5570 5566 5562 5561 5557 5552 5549 5544
5683 5682 5680 5677 5674 5671 5666 5660 5652 5645 5639 5631 5625 5619 5614 5610 5605 5599 5594 5587 5582 5578 5573 5567 5561 5557 5552 5547 5544 5541 5535 5532
5678 5675 5672 5670 5667 5665 5662 5657 5650 5642 5634 5627 5618 5610 5605 5601 5598 5592 5585 5581 5575 5570 5564 5560 5555 5551 5546 5540 5534 5527 5526 5524
5673 5669 5667 5663 5661 5658 5654 5650 5643 5634 5629 5622 5614 5607 5602 5596 5590 5585 5579 5573 5567 5562 5557 5552 5549 5542 5537 5530 5524 5518 5510 5502